This is the latest recevied weather packets stored in our database for station/object KB9PVH-3. If no packets are shown the sender has not sent any weather packets the latest 10 day(s).
| Time | Temp. | Humidity | Pressure | Rain* | Wind** | Luminosity | Snow |
|---|---|---|---|---|---|---|---|
| 1777749153 | 13.33° C | 36% | 1018.4 hPa | 0 mm | - | - | - |
| 1777748104 | 13.33° C | 38% | 1018.7 hPa | 0 mm | - | - | - |
| 1777745999 | 13.33° C | 37% | 1018.9 hPa | 0 mm | - | - | - |
| 1777744953 | 13.33° C | 37% | 1018.9 hPa | 0 mm | - | - | - |
| 1777743899 | 14.44° C | 41% | 1019.2 hPa | 0 mm | - | - | - |
| 1777742853 | 13.89° C | 38% | 1019.4 hPa | 0 mm | - | - | - |
| 1777741803 | 13.33° C | 37% | 1019.7 hPa | 0 mm | - | - | - |
| 1777740753 | 12.22° C | 38% | 1019.8 hPa | 0 mm | - | - | - |
| 1777739699 | 12.78° C | 39% | 1020 hPa | 0 mm | - | - | - |
| 1777738649 | 12.22° C | 35% | 1020.3 hPa | 0 mm | - | - | - |
| 1777737601 | 11.67° C | 41% | 1020.2 hPa | 0 mm | - | - | - |
| 1777736550 | 11.67° C | 42% | 1020.6 hPa | 0 mm | - | - | - |
| 1777734449 | 10° C | 52% | 1020.9 hPa | 0 mm | - | - | - |
| 1777733399 | 10° C | 52% | 1020.7 hPa | 0 mm | - | - | - |
| 1777732350 | 9.44° C | 58% | 1020.8 hPa | 0 mm | - | - | - |
| 1777731299 | 8.89° C | 59% | 1021 hPa | 0 mm | - | - | - |
| 1777730249 | 7.78° C | 65% | 1021 hPa | 0 mm | - | - | - |
| 1777729199 | 7.22° C | 68% | 1021.2 hPa | 0 mm | - | - | - |
| 1777728149 | 6.11° C | 73% | 1021.3 hPa | 0 mm | - | - | - |
| 1777727099 | 5.56° C | 76% | 1021.1 hPa | 0 mm | - | - | - |
| 1777726049 | 3.89° C | 81% | 1021.4 hPa | 0 mm | - | - | - |
| 1777724999 | 3.33° C | 83% | 1021.2 hPa | 0 mm | - | - | - |
| 1777723949 | 1.67° C | 87% | 1021.2 hPa | 0 mm | - | - | - |
| 1777722899 | 0.56° C | 89% | 1021.1 hPa | 0 mm | - | - | - |
| 1777721849 | 0° C | 92% | 1021 hPa | 0 mm | - | - | - |
* Rain latest hour (hover to see other rain measurements)
** Current wind speed in m/s (hover to see current wind gust speed)